EDT,Max TemperatureF,Mean TemperatureF,Min TemperatureF,Max Dew PointF,MeanDew PointF,Min DewpointF,Max Humidity, Mean Humidity, Min Humidity, Max Sea Level PressureIn, Mean Sea Level PressureIn, Min Sea Level PressureIn, Max VisibilityMiles, Mean VisibilityMiles, Min VisibilityMiles, Max Wind SpeedMPH, Mean Wind SpeedMPH, Max Gust SpeedMPH,PrecipitationIn, CloudCover, Events, WindDirDegrees
2013-10-1,76,60,45,56,50,45,99,76,37,29.97,29.90,29.84,10,9,7,10,4,,0.00,1,,285
2013-10-2,80,65,51,58,56,51,100,78,48,29.93,29.85,29.80,10,9,8,15,4,,0.00,1,Fog,256
2013-10-3,77,64,52,58,51,45,95,68,32,30.08,30.02,29.94,10,10,10,10,5,,0.00,3,,251
2013-10-4,68,58,49,57,53,48,96,77,53,30.09,30.05,30.03,10,10,10,5,3,,0.00,5,,269
2013-10-5,63,60,57,57,52,48,94,77,64,30.13,30.10,30.05,10,10,10,8,4,,0.00,8,Rain,49
2013-10-6,58,54,51,56,51,44,100,90,67,30.26,30.21,30.14,10,8,3,14,6,18,0.15,8,Rain,68
2013-10-7,71,64,56,68,63,56,100,96,82,30.15,29.95,29.79,10,5,0,21,7,33,0.11,7,Fog-Rain,139
2013-10-8,65,56,44,49,42,36,88,63,36,30.39,30.17,29.90,10,10,10,17,9,25,0.00,0,,296
2013-10-9,59,48,38,45,41,36,98,78,48,30.50,30.43,30.38,10,10,10,8,5,,0.00,0,,1
2013-10-10,59,49,39,50,46,39,100,90,62,30.38,30.29,30.20,10,9,1,6,3,,0.00,3,,315
2013-10-11,67,54,42,53,48,43,100,91,44,30.18,30.15,30.12,10,7,0,6,2,,0.00,4,Fog,323
2013-10-12,55,50,46,54,51,45,100,93,82,30.43,30.32,30.17,10,10,6,13,7,23,0.00,6,Rain,42
2013-10-13,59,50,40,48,43,40,100,87,53,30.48,30.42,30.40,10,8,1,10,4,,0.00,2,,12
2013-10-14,54,42,35,54,40,36,100,99,93,30.41,30.38,30.36,10,2,0,5,2,,0.00,1,Fog,300
2013-10-15,61,56,51,54,52,49,100,87,70,30.26,30.23,30.20,10,10,10,9,4,,0.00,7,,46
2013-10-16,59,54,50,55,53,49,100,94,71,30.19,30.10,29.91,10,8,0,7,3,,0.00,7,Fog,30
2013-10-17,74,63,53,57,53,48,100,88,45,29.91,29.83,29.70,10,7,1,9,4,,0.00,6,,221
2013-10-18,68,60,51,61,53,36,100,83,41,29.88,29.68,29.58,10,10,5,17,6,31,0.06,6,Rain,208
2013-10-19,66,52,39,47,41,36,86,62,38,29.96,29.88,29.76,10,10,10,13,6,,0.00,1,,202
2013-10-20,62,54,46,49,39,31,91,58,31,29.99,29.80,29.68,10,10,10,18,9,30,0.00,2,,237
2013-10-21,66,52,38,49,39,34,88,66,37,30.10,30.04,29.99,10,10,10,10,6,,0.00,0,,216
2013-10-22,63,53,43,50,46,35,93,73,58,29.98,29.78,29.69,10,10,10,15,5,21,0.00,3,,199
2013-10-23,52,44,35,36,34,31,92,66,45,29.79,29.69,29.60,10,10,10,9,5,,0.00,3,,247
2013-10-24,53,46,40,34,28,25,78,52,35,29.86,29.75,29.63,10,10,10,17,10,26,0.00,3,,259
2013-10-25,50,41,32,32,27,22,85,60,34,30.14,30.01,29.88,10,10,10,16,8,23,0.00,1,,283
2013-10-26,52,40,28,33,27,21,88,56,30,30.14,30.01,29.87,10,10,10,14,7,21,0.00,4,Rain,227
2013-10-27,56,46,38,38,34,25,84,67,39,30.04,29.86,29.80,10,10,10,14,8,20,0.02,4,Rain,218
2013-10-28,58,46,33,32,28,21,78,56,38,30.35,30.15,30.05,10,10,10,20,8,29,0.00,2,,262
2013-10-29,48,36,24,28,23,14,92,64,25,30.45,30.41,30.37,10,10,10,8,4,,0.00,1,,294
2013-10-30,49,40,31,34,30,25,93,75,53,30.35,30.27,30.21,10,10,3,10,3,,0.00,6,Rain,262
2013-10-31,60,46,31,59,43,30,100,92,79,30.25,30.07,29.78,10,5,2,13,3,23,0.08,6,Rain,223